Time,TemperatureF,DewpointF,PressureIn,WindDirection,WindDirectionDegrees,WindSpeedMPH,WindSpeedGustMPH,Humidity,HourlyPrecipIn,Conditions,Clouds,dailyrainin,SoftwareType,DateUTC
2013-01-02 00:00:00,21.9,9.9,29.99,NW,310,0.0,0.0,59,0.00,,,0.00,meteohub,2013-01-02 05:00:00,
2013-01-02 00:01:00,21.7,9.3,29.99,NW,310,0.0,0.0,58,0.00,,,0.00,meteohub,2013-01-02 05:01:00,
2013-01-02 00:02:00,21.7,9.7,29.99,NW,310,0.0,0.0,59,0.00,,,0.00,meteohub,2013-01-02 05:02:00,
2013-01-02 00:08:00,21.7,10.0,29.99,NW,310,0.0,0.0,60,0.00,,,0.00,meteohub,2013-01-02 05:08:00,
2013-01-02 00:13:00,21.6,9.9,30.00,NW,310,0.0,0.0,60,0.00,,,0.00,meteohub,2013-01-02 05:13:00,
2013-01-02 00:18:00,21.6,10.2,30.00,NW,310,0.0,0.0,61,0.00,,,0.00,meteohub,2013-01-02 05:18:00,
2013-01-02 00:23:00,21.4,10.0,30.00,NW,310,0.0,0.0,61,0.00,,,0.00,meteohub,2013-01-02 05:23:00,
2013-01-02 00:28:00,21.4,10.8,30.00,NW,310,0.0,0.0,63,0.00,,,0.00,meteohub,2013-01-02 05:28:00,
2013-01-02 00:33:00,21.2,10.6,30.00,NW,310,0.0,0.0,63,0.00,,,0.00,meteohub,2013-01-02 05:33:00,
2013-01-02 00:39:00,21.0,10.0,29.99,NW,310,0.0,0.0,62,0.00,,,0.00,meteohub,2013-01-02 05:39:00,
2013-01-02 00:44:00,20.8,10.2,29.99,NW,310,0.0,0.0,63,0.00,,,0.00,meteohub,2013-01-02 05:44:00,
2013-01-02 00:49:00,20.8,10.2,29.99,NW,310,0.0,0.0,63,0.00,,,0.00,meteohub,2013-01-02 05:49:00,
2013-01-02 00:54:00,20.7,10.0,29.99,NW,310,0.0,0.0,63,0.00,,,0.00,meteohub,2013-01-02 05:54:00,
2013-01-02 00:59:00,20.7,10.4,29.98,NW,310,0.0,0.0,64,0.00,,,0.00,meteohub,2013-01-02 05:59:00,
2013-01-02 01:04:00,20.7,10.8,29.99,NW,310,0.0,0.0,65,0.00,,,0.00,meteohub,2013-01-02 06:04:00,
2013-01-02 01:10:00,20.5,9.9,29.99,NW,310,0.0,0.0,63,0.00,,,0.00,meteohub,2013-01-02 06:10:00,
2013-01-02 01:15:00,20.5,10.2,29.99,NW,310,0.0,0.0,64,0.00,,,0.00,meteohub,2013-01-02 06:15:00,
2013-01-02 01:20:00,20.5,9.9,29.99,NW,310,0.0,0.0,63,0.00,,,0.00,meteohub,2013-01-02 06:20:00,
2013-01-02 01:25:00,20.5,9.5,30.00,NW,310,0.0,0.0,62,0.00,,,0.00,meteohub,2013-01-02 06:25:00,
2013-01-02 01:30:00,20.5,10.2,30.00,NW,310,0.0,0.0,64,0.00,,,0.00,meteohub,2013-01-02 06:30:00,
2013-01-02 01:35:00,20.3,10.4,30.00,NW,310,0.0,0.0,65,0.00,,,0.00,meteohub,2013-01-02 06:35:00,
2013-01-02 01:41:00,20.1,10.2,30.00,NW,310,0.0,0.0,65,0.00,,,0.00,meteohub,2013-01-02 06:41:00,
2013-01-02 01:46:00,19.9,9.3,30.01,NW,310,0.0,0.0,63,0.00,,,0.00,meteohub,2013-01-02 06:46:00,
2013-01-02 01:51:00,19.9,10.8,30.01,NW,310,0.0,0.0,67,0.00,,,0.00,meteohub,2013-01-02 06:51:00,
2013-01-02 01:56:00,19.8,10.2,30.01,NW,310,0.0,0.0,66,0.00,,,0.00,meteohub,2013-01-02 06:56:00,
2013-01-02 02:01:00,19.6,10.0,30.01,NW,310,0.0,0.0,66,0.00,,,0.00,meteohub,2013-01-02 07:01:00,
2013-01-02 02:06:00,19.4,9.5,30.01,NW,310,0.0,0.0,65,0.00,,,0.00,meteohub,2013-01-02 07:06:00,
2013-01-02 02:12:00,19.2,9.7,30.01,NW,310,0.0,0.0,66,0.00,,,0.00,meteohub,2013-01-02 07:12:00,
2013-01-02 02:17:00,19.2,9.7,30.01,NW,310,0.0,0.0,66,0.00,,,0.00,meteohub,2013-01-02 07:17:00,
2013-01-02 02:22:00,19.2,10.0,30.01,NW,310,0.0,0.0,67,0.00,,,0.00,meteohub,2013-01-02 07:22:00,
2013-01-02 02:27:00,19.0,9.9,30.01,NW,310,0.0,0.0,67,0.00,,,0.00,meteohub,2013-01-02 07:27:00,
2013-01-02 02:32:00,18.7,9.5,30.01,NW,310,0.0,0.0,67,0.00,,,0.00,meteohub,2013-01-02 07:32:00,
2013-01-02 02:37:00,18.5,9.7,30.01,NW,310,0.0,0.0,68,0.00,,,0.00,meteohub,2013-01-02 07:37:00,
2013-01-02 02:42:00,18.3,9.5,30.01,NW,310,0.0,0.0,68,0.00,,,0.00,meteohub,2013-01-02 07:42:00,
2013-01-02 02:47:00,18.1,9.7,30.01,NW,310,0.0,0.0,69,0.00,,,0.00,meteohub,2013-01-02 07:47:00,
2013-01-02 02:52:00,18.0,9.5,30.01,North,-999,-999.0,0.0,69,0.00,,,0.00,meteohub,2013-01-02 07:52:00,
2013-01-02 02:57:00,18.0,9.5,30.01,NW,310,0.0,0.0,69,0.00,,,0.00,meteohub,2013-01-02 07:57:00,
2013-01-02 03:02:00,17.8,9.7,30.01,NW,310,0.0,0.0,70,0.00,,,0.00,meteohub,2013-01-02 08:02:00,
2013-01-02 03:07:00,17.6,9.5,30.01,NW,310,0.0,0.0,70,0.00,,,0.00,meteohub,2013-01-02 08:07:00,
2013-01-02 03:12:00,17.4,9.3,30.01,NW,310,0.0,0.0,70,0.00,,,0.00,meteohub,2013-01-02 08:12:00,
2013-01-02 03:17:00,17.4,9.3,30.01,NW,310,0.0,0.0,70,0.00,,,0.00,meteohub,2013-01-02 08:17:00,
2013-01-02 03:22:00,17.2,9.5,30.01,NW,310,0.0,0.0,71,0.00,,,0.00,meteohub,2013-01-02 08:22:00,
2013-01-02 03:27:00,17.1,9.3,30.01,NW,310,0.0,0.0,71,0.00,,,0.00,meteohub,2013-01-02 08:27:00,
2013-01-02 03:33:00,17.1,9.7,30.01,NW,310,0.0,0.0,72,0.00,,,0.00,meteohub,2013-01-02 08:33:00,
2013-01-02 03:38:00,16.9,9.5,30.01,NW,310,0.0,0.0,72,0.00,,,0.00,meteohub,2013-01-02 08:38:00,
2013-01-02 03:43:00,16.7,9.3,30.00,NW,310,0.0,0.0,72,0.00,,,0.00,meteohub,2013-01-02 08:43:00,
2013-01-02 03:48:00,16.9,9.7,30.00,NW,310,0.0,0.0,73,0.00,,,0.00,meteohub,2013-01-02 08:48:00,
2013-01-02 03:53:00,16.9,10.0,30.00,NW,310,0.0,0.0,74,0.00,,,0.00,meteohub,2013-01-02 08:53:00,
2013-01-02 03:59:00,16.9,10.0,30.01,NW,310,0.0,0.0,74,0.00,,,0.00,meteohub,2013-01-02 08:59:00,
2013-01-02 04:04:00,16.9,10.0,30.01,NW,310,0.0,0.0,74,0.00,,,0.00,meteohub,2013-01-02 09:04:00,
2013-01-02 04:09:00,17.1,10.2,30.00,NW,310,0.0,0.0,74,0.00,,,0.00,meteohub,2013-01-02 09:09:00,
2013-01-02 04:14:00,17.1,10.6,30.00,NW,310,0.0,0.0,75,0.00,,,0.00,meteohub,2013-01-02 09:14:00,
2013-01-02 04:19:00,17.2,10.8,30.00,NW,310,0.0,0.0,75,0.00,,,0.00,meteohub,2013-01-02 09:19:00,
2013-01-02 04:24:00,17.2,10.8,30.00,NW,310,0.0,0.0,75,0.00,,,0.00,meteohub,2013-01-02 09:24:00,
2013-01-02 04:30:00,17.4,10.9,30.00,NW,310,0.0,0.0,75,0.00,,,0.00,meteohub,2013-01-02 09:30:00,
2013-01-02 04:35:00,17.6,10.8,30.00,NW,310,0.0,0.0,74,0.00,,,0.00,meteohub,2013-01-02 09:35:00,
2013-01-02 04:40:00,17.6,10.8,30.00,NW,310,0.0,0.0,74,0.00,,,0.00,meteohub,2013-01-02 09:40:00,
2013-01-02 04:45:00,17.6,11.1,30.00,NW,310,0.0,0.0,75,0.00,,,0.00,meteohub,2013-01-02 09:45:00,
2013-01-02 04:50:00,17.6,11.1,30.01,NW,310,0.0,0.0,75,0.00,,,0.00,meteohub,2013-01-02 09:50:00,
2013-01-02 04:55:00,17.6,11.1,30.01,NW,310,0.0,0.0,75,0.00,,,0.00,meteohub,2013-01-02 09:55:00,
2013-01-02 05:01:00,17.6,10.8,30.01,NW,310,0.0,0.0,74,0.00,,,0.00,meteohub,2013-01-02 10:01:00,
2013-01-02 05:06:00,17.6,11.1,30.01,NW,310,0.0,0.0,75,0.00,,,0.00,meteohub,2013-01-02 10:06:00,
2013-01-02 05:11:00,17.8,11.1,30.02,NW,310,0.0,0.0,75,0.00,,,0.00,meteohub,2013-01-02 10:11:00,
2013-01-02 05:16:00,17.8,10.9,30.02,NW,310,0.0,0.0,74,0.00,,,0.00,meteohub,2013-01-02 10:16:00,
2013-01-02 05:21:00,17.8,10.9,30.02,NW,310,0.0,0.0,74,0.00,,,0.00,meteohub,2013-01-02 10:21:00,
2013-01-02 05:26:00,17.8,10.9,30.01,NW,310,0.0,0.0,74,0.00,,,0.00,meteohub,2013-01-02 10:26:00,
2013-01-02 05:31:00,17.8,10.6,30.02,NW,310,0.0,0.0,73,0.00,,,0.00,meteohub,2013-01-02 10:31:00,
2013-01-02 05:37:00,17.8,10.6,30.02,NW,310,0.0,0.0,73,0.00,,,0.00,meteohub,2013-01-02 10:37:00,
2013-01-02 05:42:00,17.6,10.4,30.02,NW,310,0.0,0.0,73,0.00,,,0.00,meteohub,2013-01-02 10:42:00,
2013-01-02 05:47:00,17.4,10.2,30.02,NW,310,0.0,0.0,73,0.00,,,0.00,meteohub,2013-01-02 10:47:00,
2013-01-02 05:52:00,17.2,10.4,30.02,NW,310,0.0,0.0,74,0.00,,,0.00,meteohub,2013-01-02 10:52:00,
2013-01-02 05:57:00,17.1,9.9,30.02,NW,310,0.0,0.0,73,0.00,,,0.00,meteohub,2013-01-02 10:57:00,
2013-01-02 06:02:00,16.9,9.7,30.02,NW,310,0.0,0.0,73,0.00,,,0.00,meteohub,2013-01-02 11:02:00,
2013-01-02 06:07:00,16.7,9.5,30.02,NW,310,0.0,0.0,73,0.00,,,0.00,meteohub,2013-01-02 11:07:00,
2013-01-02 06:12:00,16.2,9.3,30.02,NW,310,0.0,0.0,74,0.00,,,0.00,meteohub,2013-01-02 11:12:00,
2013-01-02 06:17:00,16.0,9.1,30.02,NW,310,0.0,0.0,74,0.00,,,0.00,meteohub,2013-01-02 11:17:00,
2013-01-02 06:22:00,15.6,8.8,30.02,NW,310,0.0,0.0,74,0.00,,,0.00,meteohub,2013-01-02 11:22:00,
2013-01-02 06:27:00,15.3,8.8,30.02,NW,310,0.0,0.0,75,0.00,,,0.00,meteohub,2013-01-02 11:27:00,
2013-01-02 06:32:00,15.1,9.0,30.02,NW,310,0.0,0.0,76,0.00,,,0.00,meteohub,2013-01-02 11:32:00,
2013-01-02 06:37:00,14.7,9.1,30.02,NW,310,0.0,0.0,78,0.00,,,0.00,meteohub,2013-01-02 11:37:00,
2013-01-02 06:42:00,14.7,9.1,30.01,NW,310,0.0,0.0,78,0.00,,,0.00,meteohub,2013-01-02 11:42:00,
2013-01-02 06:47:00,14.5,8.6,30.01,NW,310,0.0,0.0,77,0.00,,,0.00,meteohub,2013-01-02 11:47:00,
2013-01-02 06:52:00,14.5,8.6,30.02,NW,310,0.0,0.0,77,0.00,,,0.00,meteohub,2013-01-02 11:52:00,
2013-01-02 06:57:00,14.5,8.6,30.01,NW,310,0.0,0.0,77,0.00,,,0.00,meteohub,2013-01-02 11:57:00,
2013-01-02 07:02:00,14.5,9.0,30.01,North,-999,-999.0,0.0,78,0.00,,,0.00,meteohub,2013-01-02 12:02:00,
2013-01-02 07:07:00,14.4,8.8,30.02,NW,310,0.0,0.0,78,0.00,,,0.00,meteohub,2013-01-02 12:07:00,
2013-01-02 07:12:00,14.4,9.0,30.01,NW,310,0.0,0.0,79,0.00,,,0.00,meteohub,2013-01-02 12:12:00,
2013-01-02 07:17:00,14.2,9.0,30.01,NW,310,0.0,0.0,79,0.00,,,0.00,meteohub,2013-01-02 12:17:00,
2013-01-02 07:22:00,14.2,8.6,30.01,NW,310,0.0,0.0,78,0.00,,,0.00,meteohub,2013-01-02 12:22:00,
2013-01-02 07:27:00,14.0,8.4,30.01,NW,310,0.0,0.0,78,0.00,,,0.00,meteohub,2013-01-02 12:27:00,
2013-01-02 07:32:00,13.8,7.9,30.01,NW,310,0.0,0.0,77,0.00,,,0.00,meteohub,2013-01-02 12:32:00,
2013-01-02 07:37:00,13.6,8.1,30.01,NW,310,0.0,0.0,78,0.00,,,0.00,meteohub,2013-01-02 12:37:00,
2013-01-02 07:42:00,13.3,7.7,30.01,NW,310,0.0,0.0,78,0.00,,,0.00,meteohub,2013-01-02 12:42:00,
2013-01-02 07:47:00,12.9,7.2,30.01,NW,310,0.0,0.0,77,0.00,,,0.00,meteohub,2013-01-02 12:47:00,
2013-01-02 07:52:00,12.6,6.8,30.01,NW,310,0.0,0.0,77,0.00,,,0.00,meteohub,2013-01-02 12:52:00,
2013-01-02 07:57:00,12.4,6.8,30.01,NW,310,0.0,0.0,78,0.00,,,0.00,meteohub,2013-01-02 12:57:00,
2013-01-02 08:02:00,12.0,7.0,30.02,NW,310,0.0,0.0,80,0.00,,,0.00,meteohub,2013-01-02 13:02:00,
2013-01-02 08:07:00,12.0,7.3,30.01,NW,310,0.0,0.0,81,0.00,,,0.00,meteohub,2013-01-02 13:07:00,
2013-01-02 08:12:00,11.8,7.2,30.01,NW,310,0.0,0.0,81,0.00,,,0.00,meteohub,2013-01-02 13:12:00,
2013-01-02 08:17:00,11.8,7.9,30.02,NW,310,0.0,0.0,84,0.00,,,0.00,meteohub,2013-01-02 13:17:00,
2013-01-02 08:22:00,12.0,8.1,30.02,NW,310,0.0,0.0,84,0.00,,,0.00,meteohub,2013-01-02 13:22:00,
2013-01-02 08:27:00,12.4,8.4,30.02,NW,310,0.0,0.0,84,0.00,,,0.00,meteohub,2013-01-02 13:27:00,
2013-01-02 08:32:00,12.6,8.6,30.02,NW,310,0.0,0.0,84,0.00,,,0.00,meteohub,2013-01-02 13:32:00,
2013-01-02 08:37:00,12.7,9.1,30.02,NW,310,0.0,0.0,85,0.00,,,0.00,meteohub,2013-01-02 13:37:00,
2013-01-02 08:42:00,12.9,9.0,30.02,NW,310,0.0,0.0,84,0.00,,,0.00,meteohub,2013-01-02 13:42:00,
2013-01-02 08:47:00,13.3,9.7,30.03,NW,310,0.0,0.0,85,0.00,,,0.00,meteohub,2013-01-02 13:47:00,
2013-01-02 08:52:00,13.3,9.7,30.02,NW,310,0.0,0.0,85,0.00,,,0.00,meteohub,2013-01-02 13:52:00,
2013-01-02 08:57:00,13.5,9.9,30.02,NW,310,0.0,0.0,85,0.00,,,0.00,meteohub,2013-01-02 13:57:00,
2013-01-02 09:02:00,13.5,9.9,30.03,NW,310,0.0,0.0,85,0.00,,,0.00,meteohub,2013-01-02 14:02:00,
2013-01-02 09:07:00,13.6,9.7,30.04,NW,310,0.0,0.0,84,0.00,,,0.00,meteohub,2013-01-02 14:07:00,
2013-01-02 09:12:00,13.6,10.0,30.04,NW,310,0.0,0.0,85,0.00,,,0.00,meteohub,2013-01-02 14:12:00,
2013-01-02 09:17:00,14.0,10.4,30.04,NW,310,0.0,0.0,85,0.00,,,0.00,meteohub,2013-01-02 14:17:00,
2013-01-02 09:22:00,14.5,10.6,30.04,NW,310,0.0,0.0,84,0.00,,,0.00,meteohub,2013-01-02 14:22:00,
2013-01-02 09:27:00,14.9,10.9,30.04,NW,310,0.0,0.0,84,0.00,,,0.00,meteohub,2013-01-02 14:27:00,
2013-01-02 09:32:00,15.3,10.8,30.04,NW,310,0.0,0.0,82,0.00,,,0.00,meteohub,2013-01-02 14:32:00,
2013-01-02 09:37:00,15.8,10.9,30.05,NW,310,0.0,0.0,81,0.00,,,0.00,meteohub,2013-01-02 14:37:00,
2013-01-02 09:42:00,16.2,11.3,30.05,NW,310,0.0,0.0,81,0.00,,,0.00,meteohub,2013-01-02 14:42:00,
2013-01-02 09:47:00,16.5,11.5,30.05,NW,310,0.0,0.0,80,0.00,,,0.00,meteohub,2013-01-02 14:47:00,
2013-01-02 09:52:00,17.1,12.0,30.06,NW,310,0.0,0.0,80,0.00,,,0.00,meteohub,2013-01-02 14:52:00,
2013-01-02 09:57:00,17.8,12.4,30.05,NW,310,0.0,0.0,79,0.00,,,0.00,meteohub,2013-01-02 14:57:00,
2013-01-02 10:02:00,18.1,12.4,30.05,NW,310,0.0,0.0,78,0.00,,,0.00,meteohub,2013-01-02 15:02:00,
2013-01-02 10:07:00,18.9,12.9,30.05,NW,310,0.0,0.0,77,0.00,,,0.00,meteohub,2013-01-02 15:07:00,
2013-01-02 10:12:00,19.2,12.9,30.05,NW,310,0.0,0.0,76,0.00,,,0.00,meteohub,2013-01-02 15:12:00,
2013-01-02 10:17:00,19.8,12.7,30.05,NW,310,0.0,0.0,74,0.00,,,0.00,meteohub,2013-01-02 15:17:00,
2013-01-02 10:22:00,19.9,12.9,30.05,NW,310,0.0,0.0,74,0.00,,,0.00,meteohub,2013-01-02 15:22:00,
2013-01-02 10:27:00,20.1,12.9,30.05,NW,310,0.0,0.0,73,0.00,,,0.00,meteohub,2013-01-02 15:27:00,
2013-01-02 10:32:00,20.3,12.7,30.05,NW,310,0.0,0.0,72,0.00,,,0.00,meteohub,2013-01-02 15:32:00,
2013-01-02 10:38:00,20.5,12.9,30.04,NW,310,0.0,0.0,72,0.00,,,0.00,meteohub,2013-01-02 15:38:00,
2013-01-02 10:43:00,20.7,13.5,30.04,NW,310,0.0,0.0,73,0.00,,,0.00,meteohub,2013-01-02 15:43:00,
2013-01-02 10:48:00,20.7,13.1,30.04,NW,310,0.0,0.0,72,0.00,,,0.00,meteohub,2013-01-02 15:48:00,
2013-01-02 10:53:00,20.8,13.3,30.04,NW,310,0.0,0.0,72,0.00,,,0.00,meteohub,2013-01-02 15:53:00,
2013-01-02 10:58:00,21.0,13.1,30.03,NW,310,0.0,0.0,71,0.00,,,0.00,meteohub,2013-01-02 15:58:00,
2013-01-02 11:03:00,21.4,13.5,30.03,NW,310,0.0,0.0,71,0.00,,,0.00,meteohub,2013-01-02 16:03:00,
2013-01-02 11:08:00,21.6,14.0,30.03,NW,310,0.0,0.0,72,0.00,,,0.00,meteohub,2013-01-02 16:08:00,
2013-01-02 11:13:00,21.7,14.2,30.03,NW,310,0.0,0.0,72,0.00,,,0.00,meteohub,2013-01-02 16:13:00,
2013-01-02 11:19:00,21.9,13.6,30.02,NW,310,0.0,0.0,70,0.00,,,0.00,meteohub,2013-01-02 16:19:00,
2013-01-02 11:24:00,22.3,14.0,30.02,NW,310,0.0,0.0,70,0.00,,,0.00,meteohub,2013-01-02 16:24:00,
2013-01-02 11:29:00,22.5,14.5,30.02,NW,310,0.0,0.0,71,0.00,,,0.00,meteohub,2013-01-02 16:29:00,
2013-01-02 11:34:00,22.5,14.2,30.02,NW,310,0.0,0.0,70,0.00,,,0.00,meteohub,2013-01-02 16:34:00,
2013-01-02 11:39:00,22.6,14.4,30.02,NW,310,0.0,0.0,70,0.00,,,0.00,meteohub,2013-01-02 16:39:00,
2013-01-02 11:45:00,22.8,14.5,30.01,NW,310,0.0,0.0,70,0.00,,,0.00,meteohub,2013-01-02 16:45:00,
2013-01-02 11:50:00,23.2,15.3,30.01,NW,310,0.0,0.0,71,0.00,,,0.00,meteohub,2013-01-02 16:50:00,
2013-01-02 11:55:00,23.4,14.4,30.01,NW,310,0.0,0.0,68,0.00,,,0.00,meteohub,2013-01-02 16:55:00,
2013-01-02 12:00:00,23.5,14.5,30.01,NW,310,0.0,0.0,68,0.00,,,0.00,meteohub,2013-01-02 17:00:00,
2013-01-02 12:05:00,23.7,14.7,30.01,NW,310,0.0,0.0,68,0.00,,,0.00,meteohub,2013-01-02 17:05:00,
2013-01-02 12:10:00,23.9,15.3,30.00,NW,310,0.0,0.0,69,0.00,,,0.00,meteohub,2013-01-02 17:10:00,
2013-01-02 12:16:00,24.3,15.6,30.00,NW,310,0.0,0.0,69,0.00,,,0.00,meteohub,2013-01-02 17:16:00,
2013-01-02 12:21:00,24.3,14.5,30.00,NW,310,0.0,0.0,66,0.00,,,0.00,meteohub,2013-01-02 17:21:00,
2013-01-02 12:26:00,24.4,14.7,30.00,NW,310,0.0,0.0,66,0.00,,,0.00,meteohub,2013-01-02 17:26:00,
2013-01-02 12:31:00,24.6,16.0,30.00,NW,310,0.0,0.0,69,0.00,,,0.00,meteohub,2013-01-02 17:31:00,
2013-01-02 12:36:00,25.0,15.6,30.00,NW,310,0.0,0.0,67,0.00,,,0.00,meteohub,2013-01-02 17:36:00,
2013-01-02 12:41:00,25.2,16.2,30.00,NW,310,0.0,0.0,68,0.00,,,0.00,meteohub,2013-01-02 17:41:00,
2013-01-02 12:47:00,25.3,16.0,29.99,NW,310,0.0,0.0,67,0.00,,,0.00,meteohub,2013-01-02 17:47:00,
2013-01-02 12:52:00,25.5,16.2,29.99,NW,310,0.0,0.0,67,0.00,,,0.00,meteohub,2013-01-02 17:52:00,
2013-01-02 12:57:00,25.7,16.0,29.99,NW,310,0.0,0.0,66,0.00,,,0.00,meteohub,2013-01-02 17:57:00,
2013-01-02 13:02:00,25.9,16.2,29.99,NW,310,0.0,0.0,66,0.00,,,0.00,meteohub,2013-01-02 18:02:00,
2013-01-02 13:07:00,26.1,16.7,29.99,NW,310,0.0,0.0,67,0.00,,,0.00,meteohub,2013-01-02 18:07:00,
2013-01-02 13:12:00,26.1,16.0,29.99,NW,310,0.0,0.0,65,0.00,,,0.00,meteohub,2013-01-02 18:12:00,
2013-01-02 13:17:00,26.2,16.2,29.99,NW,310,0.0,0.0,65,0.00,,,0.00,meteohub,2013-01-02 18:17:00,
2013-01-02 13:22:00,26.4,16.3,29.99,NW,310,0.0,0.0,65,0.00,,,0.00,meteohub,2013-01-02 18:22:00,
2013-01-02 13:27:00,26.6,16.3,29.99,NW,310,0.0,0.0,65,0.00,,,0.00,meteohub,2013-01-02 18:27:00,
2013-01-02 13:32:00,26.8,15.8,29.99,NW,310,0.0,0.0,63,0.00,,,0.00,meteohub,2013-01-02 18:32:00,
2013-01-02 13:37:00,26.8,15.8,29.99,NW,310,0.0,0.0,63,0.00,,,0.00,meteohub,2013-01-02 18:37:00,
2013-01-02 13:42:00,27.0,15.6,29.99,NW,310,0.0,0.0,62,0.00,,,0.00,meteohub,2013-01-02 18:42:00,
2013-01-02 13:47:00,27.0,16.3,29.99,NW,310,0.0,0.0,64,0.00,,,0.00,meteohub,2013-01-02 18:47:00,
2013-01-02 13:52:00,27.1,16.9,29.99,NW,310,0.0,0.0,65,0.00,,,0.00,meteohub,2013-01-02 18:52:00,
2013-01-02 13:57:00,27.3,16.7,29.99,NW,310,0.0,0.0,64,0.00,,,0.00,meteohub,2013-01-02 18:57:00,
2013-01-02 14:02:00,27.5,16.9,30.00,NW,310,0.0,0.0,64,0.00,,,0.00,meteohub,2013-01-02 19:02:00,
2013-01-02 14:07:00,27.7,16.3,30.00,NW,310,0.0,0.0,62,0.00,,,0.00,meteohub,2013-01-02 19:07:00,
2013-01-02 14:12:00,27.7,16.7,30.01,NW,310,0.0,0.0,63,0.00,,,0.00,meteohub,2013-01-02 19:12:00,
2013-01-02 14:17:00,27.9,16.2,30.01,NW,310,0.0,0.0,61,0.00,,,0.00,meteohub,2013-01-02 19:17:00,
2013-01-02 14:22:00,27.9,16.5,30.01,NW,310,0.0,0.0,62,0.00,,,0.00,meteohub,2013-01-02 19:22:00,
2013-01-02 14:27:00,28.0,16.7,30.01,NW,310,0.0,0.0,62,0.00,,,0.00,meteohub,2013-01-02 19:27:00,
2013-01-02 14:32:00,28.0,17.4,30.01,NW,310,0.0,0.0,64,0.00,,,0.00,meteohub,2013-01-02 19:32:00,
2013-01-02 14:37:00,28.0,17.1,30.01,NW,310,0.0,0.0,63,0.00,,,0.00,meteohub,2013-01-02 19:37:00,
2013-01-02 14:42:00,27.9,16.9,30.02,NW,310,0.0,0.0,63,0.00,,,0.00,meteohub,2013-01-02 19:42:00,
2013-01-02 14:47:00,28.0,16.7,30.01,NW,310,0.0,0.0,62,0.00,,,0.00,meteohub,2013-01-02 19:47:00,
2013-01-02 14:52:00,28.0,17.4,30.02,NW,310,0.0,0.0,64,0.00,,,0.00,meteohub,2013-01-02 19:52:00,
2013-01-02 14:57:00,28.0,16.7,30.02,NW,310,0.0,0.0,62,0.00,,,0.00,meteohub,2013-01-02 19:57:00,
2013-01-02 15:02:00,28.0,17.1,30.02,NW,310,0.0,0.0,63,0.00,,,0.00,meteohub,2013-01-02 20:02:00,
2013-01-02 15:07:00,28.0,17.8,30.03,NW,310,0.0,0.0,65,0.00,,,0.00,meteohub,2013-01-02 20:07:00,
2013-01-02 15:12:00,28.0,17.1,30.03,NW,310,0.0,0.0,63,0.00,,,0.00,meteohub,2013-01-02 20:12:00,
2013-01-02 15:17:00,28.0,17.4,30.03,NW,310,0.0,0.0,64,0.00,,,0.00,meteohub,2013-01-02 20:17:00,
2013-01-02 15:22:00,28.0,17.1,30.04,NW,310,0.0,0.0,63,0.00,,,0.00,meteohub,2013-01-02 20:22:00,
2013-01-02 15:27:00,28.0,17.4,30.04,NW,310,0.0,0.0,64,0.00,,,0.00,meteohub,2013-01-02 20:27:00,
2013-01-02 15:32:00,28.0,17.4,30.04,NW,310,0.0,0.0,64,0.00,,,0.00,meteohub,2013-01-02 20:32:00,
2013-01-02 15:37:00,28.0,17.4,30.04,NW,310,0.0,0.0,64,0.00,,,0.00,meteohub,2013-01-02 20:37:00,
2013-01-02 15:42:00,28.0,17.4,30.04,NW,310,0.0,0.0,64,0.00,,,0.00,meteohub,2013-01-02 20:42:00,
2013-01-02 15:47:00,28.0,17.4,30.04,NW,310,0.0,0.0,64,0.00,,,0.00,meteohub,2013-01-02 20:47:00,
2013-01-02 15:52:00,27.9,18.3,30.04,NW,310,0.0,0.0,67,0.00,,,0.00,meteohub,2013-01-02 20:52:00,
2013-01-02 15:57:00,27.9,18.0,30.04,NW,310,0.0,0.0,66,0.00,,,0.00,meteohub,2013-01-02 20:57:00,
2013-01-02 16:02:00,27.7,17.4,30.04,NW,310,0.0,0.0,65,0.00,,,0.00,meteohub,2013-01-02 21:02:00,
2013-01-02 16:07:00,27.7,17.4,30.04,NW,310,0.0,0.0,65,0.00,,,0.00,meteohub,2013-01-02 21:07:00,
2013-01-02 16:12:00,27.7,17.4,30.04,NW,310,0.0,0.0,65,0.00,,,0.00,meteohub,2013-01-02 21:12:00,
2013-01-02 16:17:00,27.5,17.6,30.04,NW,310,0.0,0.0,66,0.00,,,0.00,meteohub,2013-01-02 21:17:00,
2013-01-02 16:22:00,27.3,17.4,30.04,NW,310,0.0,0.0,66,0.00,,,0.00,meteohub,2013-01-02 21:22:00,
2013-01-02 16:27:00,27.3,17.1,30.05,NW,310,0.0,0.0,65,0.00,,,0.00,meteohub,2013-01-02 21:27:00,
2013-01-02 16:32:00,27.3,17.4,30.05,NW,310,0.0,0.0,66,0.00,,,0.00,meteohub,2013-01-02 21:32:00,
2013-01-02 16:37:00,27.1,17.2,30.06,NW,310,0.0,0.0,66,0.00,,,0.00,meteohub,2013-01-02 21:37:00,
2013-01-02 16:42:00,27.1,17.6,30.06,NW,310,0.0,0.0,67,0.00,,,0.00,meteohub,2013-01-02 21:42:00,
2013-01-02 16:47:00,27.0,17.4,30.06,NW,310,0.0,0.0,67,0.00,,,0.00,meteohub,2013-01-02 21:47:00,
2013-01-02 16:52:00,27.0,17.4,30.06,NW,310,0.0,0.0,67,0.00,,,0.00,meteohub,2013-01-02 21:52:00,
2013-01-02 16:57:00,26.8,17.6,30.06,NW,310,0.0,0.0,68,0.00,,,0.00,meteohub,2013-01-02 21:57:00,
2013-01-02 17:02:00,26.6,17.1,30.06,NW,310,0.0,0.0,67,0.00,,,0.00,meteohub,2013-01-02 22:02:00,
2013-01-02 17:07:00,26.6,17.4,30.06,NW,310,0.0,0.0,68,0.00,,,0.00,meteohub,2013-01-02 22:07:00,
2013-01-02 17:12:00,26.4,17.6,30.06,NW,310,0.0,0.0,69,0.00,,,0.00,meteohub,2013-01-02 22:12:00,
2013-01-02 17:17:00,26.4,17.2,30.07,NW,310,0.0,0.0,68,0.00,,,0.00,meteohub,2013-01-02 22:17:00,
2013-01-02 17:22:00,26.4,17.2,30.07,NW,310,0.0,0.0,68,0.00,,,0.00,meteohub,2013-01-02 22:22:00,
2013-01-02 17:27:00,26.4,17.2,30.07,NW,310,0.0,0.0,68,0.00,,,0.00,meteohub,2013-01-02 22:27:00,
2013-01-02 17:32:00,26.2,16.7,30.07,North,-999,-999.0,0.0,67,0.00,,,0.00,meteohub,2013-01-02 22:32:00,
2013-01-02 17:37:00,26.2,16.7,30.07,NW,310,0.0,0.0,67,0.00,,,0.00,meteohub,2013-01-02 22:37:00,
2013-01-02 17:42:00,26.2,17.1,30.07,NW,310,0.0,0.0,68,0.00,,,0.00,meteohub,2013-01-02 22:42:00,
2013-01-02 17:47:00,26.2,17.1,30.08,NW,310,0.0,0.0,68,0.00,,,0.00,meteohub,2013-01-02 22:47:00,
2013-01-02 17:52:00,26.2,17.1,30.09,NW,310,0.0,0.0,68,0.00,,,0.00,meteohub,2013-01-02 22:52:00,
2013-01-02 17:57:00,26.1,18.0,30.08,NW,310,0.0,0.0,71,0.00,,,0.00,meteohub,2013-01-02 22:57:00,
2013-01-02 18:02:00,25.9,17.4,30.08,NW,310,0.0,0.0,70,0.00,,,0.00,meteohub,2013-01-02 23:02:00,
2013-01-02 18:07:00,25.5,17.1,30.09,NW,310,0.0,0.0,70,0.00,,,0.00,meteohub,2013-01-02 23:07:00,
2013-01-02 18:12:00,25.3,16.9,30.09,NW,310,0.0,0.0,70,0.00,,,0.00,meteohub,2013-01-02 23:12:00,
2013-01-02 18:17:00,25.2,16.7,30.09,NW,310,0.0,0.0,70,0.00,,,0.00,meteohub,2013-01-02 23:17:00,
2013-01-02 18:22:00,25.0,16.9,30.09,NW,310,0.0,0.0,71,0.00,,,0.00,meteohub,2013-01-02 23:22:00,
2013-01-02 18:27:00,24.8,17.1,30.09,NW,310,0.0,0.0,72,0.00,,,0.00,meteohub,2013-01-02 23:27:00,
2013-01-02 18:32:00,24.6,16.9,30.09,NW,310,0.0,0.0,72,0.00,,,0.00,meteohub,2013-01-02 23:32:00,
2013-01-02 18:37:00,24.4,16.7,30.09,NW,310,0.0,0.0,72,0.00,,,0.00,meteohub,2013-01-02 23:37:00,
2013-01-02 18:42:00,24.3,16.5,30.10,NW,310,0.0,0.0,72,0.00,,,0.00,meteohub,2013-01-02 23:42:00,
2013-01-02 18:47:00,24.3,16.9,30.10,NW,310,0.0,0.0,73,0.00,,,0.00,meteohub,2013-01-02 23:47:00,
2013-01-02 18:52:00,24.3,16.9,30.10,NW,310,0.0,0.0,73,0.00,,,0.00,meteohub,2013-01-02 23:52:00,
2013-01-02 18:57:00,24.3,16.9,30.11,NW,310,0.0,0.0,73,0.00,,,0.00,meteohub,2013-01-02 23:57:00,
2013-01-02 19:02:00,24.4,17.1,30.10,NW,310,0.0,0.0,73,0.00,,,0.00,meteohub,2013-01-03 00:02:00,
2013-01-02 19:07:00,24.6,16.9,30.11,NW,310,0.0,0.0,72,0.00,,,0.00,meteohub,2013-01-03 00:07:00,
2013-01-02 19:12:00,24.8,17.4,30.11,NW,310,0.0,0.0,73,0.00,,,0.00,meteohub,2013-01-03 00:12:00,
2013-01-02 19:17:00,25.0,17.2,30.11,NW,310,0.0,0.0,72,0.00,,,0.00,meteohub,2013-01-03 00:17:00,
2013-01-02 19:22:00,25.2,17.1,30.11,NW,310,0.0,0.0,71,0.00,,,0.00,meteohub,2013-01-03 00:22:00,
2013-01-02 19:27:00,25.2,17.4,30.11,NW,310,0.0,0.0,72,0.00,,,0.00,meteohub,2013-01-03 00:27:00,
2013-01-02 19:32:00,25.3,17.2,30.11,NW,310,0.0,0.0,71,0.00,,,0.00,meteohub,2013-01-03 00:32:00,
2013-01-02 19:37:00,25.3,17.2,30.11,NW,310,0.0,0.0,71,0.00,,,0.00,meteohub,2013-01-03 00:37:00,
2013-01-02 19:42:00,25.3,17.2,30.11,NW,310,0.0,0.0,71,0.00,,,0.00,meteohub,2013-01-03 00:42:00,
2013-01-02 19:47:00,25.3,17.6,30.12,NW,310,0.0,0.0,72,0.00,,,0.00,meteohub,2013-01-03 00:47:00,
2013-01-02 19:52:00,25.3,17.6,30.11,NW,310,0.0,0.0,72,0.00,,,0.00,meteohub,2013-01-03 00:52:00,
2013-01-02 19:57:00,25.2,17.4,30.12,NW,310,0.0,0.0,72,0.00,,,0.00,meteohub,2013-01-03 00:57:00,
2013-01-02 20:02:00,25.2,17.4,30.12,NW,310,0.0,0.0,72,0.00,,,0.00,meteohub,2013-01-03 01:02:00,
2013-01-02 20:07:00,25.0,17.2,30.11,NW,310,0.0,0.0,72,0.00,,,0.00,meteohub,2013-01-03 01:07:00,
2013-01-02 20:12:00,25.2,17.4,30.11,NW,310,0.0,0.0,72,0.00,,,0.00,meteohub,2013-01-03 01:12:00,
2013-01-02 20:17:00,25.2,17.4,30.11,NW,310,0.0,0.0,72,0.00,,,0.00,meteohub,2013-01-03 01:17:00,
2013-01-02 20:22:00,25.2,17.8,30.12,NW,310,0.0,0.0,73,0.00,,,0.00,meteohub,2013-01-03 01:22:00,
2013-01-02 20:27:00,25.2,17.8,30.11,NW,310,0.0,0.0,73,0.00,,,0.00,meteohub,2013-01-03 01:27:00,
2013-01-02 20:32:00,25.2,17.8,30.11,NW,310,0.0,0.0,73,0.00,,,0.00,meteohub,2013-01-03 01:32:00,
2013-01-02 20:37:00,25.3,18.0,30.11,NW,310,0.0,0.0,73,0.00,,,0.00,meteohub,2013-01-03 01:37:00,
2013-01-02 20:42:00,25.3,18.0,30.11,NW,310,0.0,0.0,73,0.00,,,0.00,meteohub,2013-01-03 01:42:00,
2013-01-02 20:47:00,25.3,18.0,30.11,NW,310,0.0,0.0,73,0.00,,,0.00,meteohub,2013-01-03 01:47:00,
2013-01-02 20:52:00,25.3,18.1,30.12,NW,310,0.0,0.0,74,0.00,,,0.00,meteohub,2013-01-03 01:52:00,
2013-01-02 20:58:00,25.2,18.0,30.12,NW,310,0.0,0.0,74,0.00,,,0.00,meteohub,2013-01-03 01:58:00,
2013-01-02 21:03:00,25.2,18.0,30.12,NW,310,0.0,0.0,74,0.00,,,0.00,meteohub,2013-01-03 02:03:00,
2013-01-02 21:08:00,25.2,18.0,30.12,NW,310,0.0,0.0,74,0.00,,,0.00,meteohub,2013-01-03 02:08:00,
2013-01-02 21:13:00,25.2,17.8,30.12,NW,310,0.0,0.0,73,0.00,,,0.00,meteohub,2013-01-03 02:13:00,
2013-01-02 21:18:00,25.2,18.0,30.12,NW,310,0.0,0.0,74,0.00,,,0.00,meteohub,2013-01-03 02:18:00,
2013-01-02 21:23:00,25.0,17.6,30.12,NW,310,0.0,0.0,73,0.00,,,0.00,meteohub,2013-01-03 02:23:00,
2013-01-02 21:29:00,25.0,17.6,30.12,NW,310,0.0,0.0,73,0.00,,,0.00,meteohub,2013-01-03 02:29:00,
2013-01-02 21:34:00,25.0,18.0,30.13,NW,310,0.0,0.0,74,0.00,,,0.00,meteohub,2013-01-03 02:34:00,
2013-01-02 21:39:00,24.8,17.4,30.13,NW,310,0.0,0.0,73,0.00,,,0.00,meteohub,2013-01-03 02:39:00,
2013-01-02 21:44:00,24.8,17.8,30.13,NW,310,0.0,0.0,74,0.00,,,0.00,meteohub,2013-01-03 02:44:00,
2013-01-02 21:49:00,24.8,17.4,30.14,NW,310,0.0,0.0,73,0.00,,,0.00,meteohub,2013-01-03 02:49:00,
2013-01-02 21:54:00,24.8,17.4,30.14,NW,310,0.0,0.0,73,0.00,,,0.00,meteohub,2013-01-03 02:54:00,
2013-01-02 22:00:00,24.6,17.6,30.14,NW,310,0.0,0.0,74,0.00,,,0.00,meteohub,2013-01-03 03:00:00,
2013-01-02 22:05:00,24.6,17.2,30.14,NW,310,0.0,0.0,73,0.00,,,0.00,meteohub,2013-01-03 03:05:00,
2013-01-02 22:10:00,24.6,17.6,30.14,NW,310,0.0,0.0,74,0.00,,,0.00,meteohub,2013-01-03 03:10:00,
2013-01-02 22:15:00,24.6,17.6,30.14,NW,310,0.0,0.0,74,0.00,,,0.00,meteohub,2013-01-03 03:15:00,
2013-01-02 22:20:00,24.4,17.6,30.14,North,-999,-999.0,0.0,75,0.00,,,0.00,meteohub,2013-01-03 03:20:00,
2013-01-02 22:26:00,24.4,17.6,30.14,NW,310,0.0,0.0,75,0.00,,,0.00,meteohub,2013-01-03 03:26:00,
2013-01-02 22:31:00,24.3,17.2,30.14,NW,310,0.0,0.0,74,0.00,,,0.00,meteohub,2013-01-03 03:31:00,
2013-01-02 22:37:00,24.1,17.2,30.14,NW,310,0.0,0.0,75,0.00,,,0.00,meteohub,2013-01-03 03:37:00,
2013-01-02 22:43:00,24.1,17.2,30.15,NW,310,0.0,0.0,75,0.00,,,0.00,meteohub,2013-01-03 03:43:00,
2013-01-02 22:48:00,23.9,16.9,30.15,NW,310,0.0,0.0,74,0.00,,,0.00,meteohub,2013-01-03 03:48:00,
2013-01-02 22:53:00,23.7,16.7,30.15,NW,310,0.0,0.0,74,0.00,,,0.00,meteohub,2013-01-03 03:53:00,
2013-01-02 22:59:00,23.7,16.7,30.15,NW,310,0.0,0.0,74,0.00,,,0.00,meteohub,2013-01-03 03:59:00,
2013-01-02 23:04:00,23.7,16.7,30.15,NW,310,0.0,0.0,74,0.00,,,0.00,meteohub,2013-01-03 04:04:00,
2013-01-02 23:09:00,23.7,16.3,30.15,NW,310,0.0,0.0,73,0.00,,,0.00,meteohub,2013-01-03 04:09:00,
2013-01-02 23:14:00,23.7,16.0,30.15,NW,310,0.0,0.0,72,0.00,,,0.00,meteohub,2013-01-03 04:14:00,
2013-01-02 23:19:00,23.7,16.3,30.15,NW,310,0.0,0.0,73,0.00,,,0.00,meteohub,2013-01-03 04:19:00,
2013-01-02 23:24:00,23.7,16.0,30.15,NW,310,0.0,0.0,72,0.00,,,0.00,meteohub,2013-01-03 04:24:00,
2013-01-02 23:30:00,23.5,15.8,30.16,NW,310,0.0,0.0,72,0.00,,,0.00,meteohub,2013-01-03 04:30:00,
2013-01-02 23:35:00,23.5,15.8,30.16,NW,310,0.0,0.0,72,0.00,,,0.00,meteohub,2013-01-03 04:35:00,
2013-01-02 23:40:00,23.5,15.4,30.15,NW,310,0.0,0.0,71,0.00,,,0.00,meteohub,2013-01-03 04:40:00,
2013-01-02 23:45:00,23.5,15.4,30.15,NW,310,0.0,0.0,71,0.00,,,0.00,meteohub,2013-01-03 04:45:00,
2013-01-02 23:50:00,23.5,16.2,30.15,NW,310,0.0,0.0,73,0.00,,,0.00,meteohub,2013-01-03 04:50:00,
2013-01-02 23:56:00,23.4,15.6,30.16,NW,310,0.0,0.0,72,0.00,,,0.00,meteohub,2013-01-03 04:56:00,